GALAXY 16 (G-16)

Last updated on Wed Mar 11 2026 00:02:51 GMT+0000 (Coordinated Universal Time)

1 29236U 06023A 26069.48414101 -.00000126 00000+0 00000+0 0 9997 2 29236 0.0367 232.7967 0002734 129.4554 241.1934 1.00273868 71986
UTC large
Height (km)
Speed (km/s)
/
Latitude / Longitude
Inclination (degrees)
Orbital Period (minutes)
Azimuth
Elevation
Range (km)
Doppler Factor

Next 0 passes for location: London (51.5072 / 0.1276)

Sorry there are no passes over London.